Weather Roundup
Issued by NWS

Home | Current Version | Previous Version | Text Only | Print | Product List | Glossary On
Versions: 1 2 3 4 5 6 7 8 9 10 11 12 13 14 15 16 17 18 19 20 21 22 23 24 25 26 27 28 29 30 31 32 33 34 35 36 37 38 39 40 41 42 43 44 45 46 47 48 49 50
281
NZUS93 KARX 060810
HRRWXR

CURRENT HOURLY OBSERVATIONS ACROSS
MUCH OF THE UPPER MISSISSIPPI VALLEY
NATIONAL WEATHER SERVICE LA CROSSE WI
200 AM CST SAT FEB 06 2016


...SOUTHEAST MINNESOTA...


CITY           SKY/WX    TMP DP  RH WIND       PRES   REMARKS
ROCHESTER      CLOUDY    24  23  96 SW15      30.15F FOG     WCI  11
ROCHESTER/MAYO CLOUDY    26  26 100 SW8       30.16F WCI  17
WINONA         CLOUDY    30  27  86 SW5       30.20F WCI  25
AUSTIN         CLOUDY    25  25 100 SW7       30.17S FOG     WCI  17
ALBERT LEA     CLOUDY    27  27 100 W6        30.17S FOG     WCI  20
DODGE CENTER   CLOUDY    25  25 100 SW10      30.15S FOG     WCI  15
PRESTON        CLOUDY    24  23  95 SW8       30.17F FOG     WCI  15
OWATONNA       CLOUDY    27  23  86 SW10      30.15F WCI  17
FARIBAULT      CLOUDY    27  25  93 SW6       30.16F WCI  20
$$

...ELSEWHERE IN MINNESOTA...


CITY           SKY/WX    TMP DP  RH WIND       PRES   REMARKS
MINNEAPOLIS    CLOUDY    26  22  84 SW6       30.16S FOG     WCI  19
INTNL FALLS    CLOUDY    20  15  81 SW5       30.01F WCI  13
DULUTH         CLOUDY    19  13  77 W9        30.04S WCI   8
RED WING       CLOUDY    27  23  86 SW6       30.16S FOG     WCI  20
REDWOOD FALLS  CLEAR     18  16  92 SW8       30.15F WCI   8
MANKATO        CLOUDY    27  21  80 W9        30.17S WCI  17
WORTHINGTON    CLOUDY    25  21  86 W10       30.17F VSB 1/2 WCI  15
FAIRMONT       CLOUDY    27  21  80 W7        30.17F WCI  19
$$

...SOUTHWEST WISCONSIN...


CITY           SKY/WX    TMP DP  RH WIND       PRES   REMARKS
LA CROSSE      CLOUDY    26  20  77 S7        30.20F WCI  18
PRAIRIE DU CHI CLOUDY    28  19  69 CALM      30.24S
BOSCOBEL       CLOUDY    27  22  81 CALM      30.24F
LONE ROCK      CLOUDY    28  19  69 CALM      30.24F
PLATTEVILLE    CLOUDY    27  24  89 S9        30.23F WCI  17
FORT MC COY    CLOUDY    26  22  84 SW8       30.20F WCI  18
CAMP DOUGLAS   MIX PCPN  27  25  93 SW9       30.18S WCI  17
VIROQUA        CLOUDY    25  21  87 SW12      30.18F WCI  14
WIS DELLS      CLOUDY    26  18  73 SW9       30.20F WCI  16
$$

...ELSEWHERE IN WISCONSIN...


CITY           SKY/WX    TMP DP  RH WIND       PRES   REMARKS
MILWAUKEE      CLOUDY    28  20  71 W7        30.26S WCI  21
MADISON        CLOUDY    27  20  75 SW8       30.23F WCI  19
GREEN BAY      CLOUDY    25  17  72 SW8       30.19F WCI  16
EAU CLAIRE     CLOUDY    24  19  81 SW8       30.15F WCI  15
BLACK RVR FLS  CLOUDY    25  20  80 SW6       30.18S WCI  18
MEDFORD        CLOUDY    21  18  90 SW8       30.11S WCI  11
WAUSAU         FLURRIES  23  17  78 SW7       30.12F WCI  15
WIS RAPIDS     FLURRIES  23  17  78 SW9       30.18F WCI  13
MARSHFIELD     CLOUDY    23  16  74 SW14      30.12F WCI  11
RICE LAKE      CLOUDY    23  21  91 SW3       30.14S FOG
$$

...NORTHEAST IOWA...


CITY           SKY/WX    TMP DP  RH WIND       PRES   REMARKS
WATERLOO       CLOUDY    28  23  81 SW9       30.23F WCI  19
DUBUQUE        PTCLDY    24  20  84 SW9       30.23F WCI  14
DECORAH        CLOUDY    27  25  93 VRB7G15   30.19F WCI  19
MASON CITY     CLOUDY    27  26  96 SW7       30.20F WCI  19
CHARLES CITY   CLOUDY    27  27 100 SW9       30.21S FOG     WCI  17
OELWEIN        CLOUDY    27  25  93 SW10      30.23S WCI  17
$$

...ELSEWHERE IN IOWA...


CITY           SKY/WX    TMP DP  RH WIND       PRES   REMARKS
DES MOINES     CLOUDY    31  26  82 S6        30.24F WCI  25
IOWA CITY      CLOUDY    28  23  81 S3        30.29F
FORT DODGE     CLOUDY    28  25  86 SW7       30.22S WCI  21
MARSHALLTOWN   CLOUDY    29  25  85 SW8       30.23S WCI  21
CEDAR RAPIDS   CLOUDY    28  24  85 S9        30.24F WCI  19
$$

...NORTHERN ILLINOIS...


CITY           SKY/WX    TMP DP  RH WIND       PRES   REMARKS
CHICAGO-OHARE  CLOUDY    27  22  81 SW7       30.28F WCI  19
CHICAGO-MIDWAY MOCLDY    27  20  75 SW6       30.30F WCI  20
MOLINE         CLOUDY    29  22  75 SW5       30.29S WCI  24
ROCKFORD       CLOUDY    28  22  78 SW6       30.30R WCI  22
PEORIA         CLOUDY    25  20  81 CALM      30.31F
$$

NOTE: "FAIR" INDICATES FEW OR NO CLOUDS BELOW 12,000 FEET WITH NO
SIGNIFICANT WEATHER AND/OR OBSTRUCTIONS TO VISIBILITY. WIND
SPEEDS ARE IN MILES-PER-HOUR.




USA.gov is the U.S. government's official web portal to all federal, state and local government web resources and services.